Regional Weather Roundup
Issued by NWS Spokane, WA

Home | Current Version | Previous Version | Text Only | Print | Product List | Glossary On
Versions: 1 2 3 4 5 6 7 8 9 10 11 12 13 14 15 16 17 18 19 20 21 22 23 24 25 26 27 28 29 30 31 32 33 34 35 36 37 38 39 40 41 42 43 44 45 46 47 48 49 50
763
NZUS01 KOTX 201225
RWROTX

Eastern Washington/Northern Idaho Roundup
National Weather Service, Spokane WA
400 AM PST MON FEB 20 2017

Note: "fair" indicated few or no clouds below 12,000 feet with no
significant weather and/or obstructions to visibility.

...Northeast Washington and Northern Idaho Panhandle...

CITY           SKY/WX    TMP DP  RH WIND       PRES   REMARKS
Spokane Intl   CLOUDY    35  31  85 SE8       29.64F WCI  29
Spokane Downto CLOUDY    33  31  92 CALM      29.66F
Coeur d Alene  CLOUDY    30  29  96 E3        29.67F
Deer Park      CLOUDY    33  31  92 CALM      29.66F
Sandpoint      LGT RAIN  34  32  93 CALM      29.69S
Bonners Ferry  MIX PCPN  34  32  93 S3        29.67F

...Southeast Washington and southern Idaho Panhandle...

CITY           SKY/WX    TMP DP  RH WIND       PRES   REMARKS
Walla Walla    MOCLDY    42  40  92 E9        29.61F
Pullman/Moscow LGT RAIN  36  33  89 SE9       29.67F
Lewiston       LGT RAIN  39  36  89 E8        29.70F
Lowell           N/A     34  32  92 CALM      29.79S
Grangeville    CLOUDY    36  34  93 NE8       29.68F

...Columbia Basin...

CITY           SKY/WX    TMP DP  RH WIND       PRES   REMARKS
Ephrata        LGT RAIN  34  29  82 N7        29.62F WCI  28
Moses Lake     CLOUDY    32  30  92 N6        29.63F WCI  26
Pasco          LGT RAIN  37  34  89 N5        29.62F
Richland       LGT RAIN  37  36  96 NW3       29.62F
Hermiston      CLOUDY    41  40  96 NE3       29.60F
Pendleton      CLOUDY    40  38  93 E12       29.58F

...East Slopes Cascades...

CITY           SKY/WX    TMP DP  RH WIND       PRES   REMARKS
The Dalles     LGT RAIN  37  37 100 CALM      29.57F VSB 3/4
Yakima         CLOUDY    35  32  88 W5        29.60F
Ellensburg     CLOUDY    35  31  85 CALM      29.58F
Stampede Pass  LGT SNOW  29  52 100 VRB3      29.48F
Wenatchee      CLOUDY    34  33  96 CALM      29.63F
Omak           CLOUDY    35  31  85 NW5       29.64F
Chelan           N/A     36  29  75 NW5         N/A
Sunnyside      DRIZZLE   36  32  84 CALM      29.59S

...Southern British Columbia...

CITY           SKY/WX    TMP DP  RH WIND       PRES   REMARKS
Penticton      MOCLDY    37  34  87 SE9       29.63S
Cranbrook      CLOUDY    32  27  80 S8        29.66R WCI  25
Osoyoos          N/A     37  34  87 S1          N/A
Creston          N/A     34  34 100 SE3         N/A

...Western Montana...

CITY           SKY/WX    TMP DP  RH WIND       PRES   REMARKS
Kalispell      CLOUDY    30  28  92 CALM      29.71S
Libby            N/A     28  28 100 CALM      29.69F VSB 1/4
Missoula       CLOUDY    31  31 100 E7        29.77R WCI  24

...Neighboring Cities...

CITY           SKY/WX    TMP DP  RH WIND       PRES   REMARKS
Seattle        CLOUDY    41  39  93 NE7       29.55F
Portland       LGT RAIN  41  39  93 SE9       29.50F
Boise          MOCLDY    46  35  65 SE18      29.75S
Great Falls    CLEAR     30  23  75 S10       29.71S WCI  21
Calgary        CLEAR     25  23  93 S3        29.55R FOG



USA.gov is the U.S. government's official web portal to all federal, state and local government web resources and services.